Regional Weather Roundup
Issued by NWS Charleston, SC

Current Version | Previous Version | Graphics & Text | Print | Product List | Glossary On
Versions: 1 2 3 4 5 6 7 8 9 10 11 12 13 14 15 16 17 18 19 20 21 22 23 24 25 26 27 28 29 30 31 32 33 34 35 36 37 38 39 40 41 42 43 44 45 46 47 48 49 50
000 ASUS42 KCHS 220727 RWRCHS REGIONAL WEATHER ROUNDUP NATIONAL WEATHER SERVICE CHARLESTON SC 300 AM EDT TUE AUG 22 2017 NOTE: "FAIR" INDICATES FEW OR NO CLOUDS BELOW 12,000 FEET WITH NO SIGNIFICANT WEATHER AND/OR OBSTRUCTIONS TO VISIBILITY. NOT ALL STATIONS ARE QUALITY CONTROLLED. USE DATA WITH CAUTION... ESPECIALLY DEWPOINT OBSERVATIONS. SCZ027-030-031-034>040-042>050-220800- ...SOUTHEAST SOUTH CAROLINA... CITY SKY/WX TMP DP RH WIND PRES REMARKS N CHARLESTON PTCLDY 74 74 100 N5 30.13F FOG WATERFRONT PRK N/A 80 78 94 VRB3 29.97F JOHNS ISLAND FAIR 77 77 100 CALM 30.11F PINOPOLIS N/A 79 77 94 CALM 30.07F MONCKS CORNER FAIR 72 70 94 CALM 30.13F SUMMERVILLE NOT AVBL BEAUFORT MCAS RAIN 76 76 100 N5 30.12F FOG BEAUFORT ARPT RAIN 75 73 94 CALM 30.12F HILTON HEAD IS CLOUDY 77 77 100 CALM 30.12F WALTERBORO SUNNY 72 72 100 CALM 30.14F ALLENDALE NOT AVBL ...SOUTHERN MIDLANDS AND PEE DEE... CITY SKY/WX TMP DP RH WIND PRES REMARKS GEORGETOWN FAIR 72 72 100 CALM 30.14F KINGSTREE CLOUDY 72 70 94 CALM 30.13F FOG ORANGEBURG CLEAR 72 70 93 CALM 30.14F BARNWELL FAIR 72 72 100 CALM 30.13F AIKEN FAIR 70 70 100 CALM 30.17F MANNING FAIR 72 64 78 CALM 30.13F COLUMBIA PTCLDY 75 71 87 CALM 30.13F SUMTER PTCLDY 74 71 89 CALM 30.11F FLORENCE MOCLDY 75 75 100 CALM 30.13F MYRTLE BEACH NOT AVBL N MYRTLE BEACH MOCLDY 78 77 96 N3 30.14F $$ GAZ063-065-086>088-099>101-113>116-118-119-134>141-150-220800- ...SOUTHEAST GEORGIA... CITY SKY/WX TMP DP RH WIND PRES REMARKS SAVANNAH ARPT CLOUDY 76 75 97 NW3 30.13F HUNTER AAF CLOUDY 76 74 94 CALM 30.10F FORT STEWART MOCLDY 75 73 94 CALM 30.10F STATESBORO CLOUDY 75 75 100 CALM 30.13F SYLVANIA N/A 74 74 100 CALM 30.14F CLAXTON FAIR 75 75 98 CALM 30.13F FOG ...CSRA...CENTRAL AND FAR SOUTHEAST GEORGIA... CITY SKY/WX TMP DP RH WIND PRES REMARKS THOMSON CLEAR 73 71 96 CALM 30.18F AUGUSTA-BUSH PTCLDY 74 73 97 CALM 30.12F FOG AUGUSTA-DANIEL CLEAR 77 72 84 CALM 30.15F SWAINSBORO FAIR 73 73 100 CALM 30.14F VIDALIA PTCLDY 73 73 100 CALM 30.13F EASTMAN FAIR 74 74 100 CALM 30.14F HAZLEHURST FAIR 76 74 92 CALM 30.11F ALMA PTCLDY 73 72 96 CALM 30.13F WAYCROSS CLEAR 74 71 91 CALM 30.12F JESUP FAIR 75 72 88 CALM 30.13F BAXLEY FAIR 72 72 100 CALM 30.12F BRUNSWICK CLEAR 73 72 94 CALM 30.12F SAINT SIMONS CLEAR 78 76 93 CALM 30.11F $$ SCZ027-028-034-036>038-045-046-048>050-GAZ119-141-220800- ...LAKE AND SUPPLEMENTAL COASTAL OBSERVATIONS... STATION/POSITION TIME TEMP WIND PRES WAVE SWELL AIR SEA DIR/SP/G HT/PER HT/PER/DIR (UTC) (F) (DEG/KT/KT) (MB) (FT/S) (FT/S/D) WINYAH BAY 0645 76 320/ 2 1020.0F LAKE MURRAY 0720 79 210/ 5/ 6 1019.3 ACE BASIN NERRS 0645 74 360/ 2 1020.0F FORT PULASKI 0700 78 87 310/ 6/ 7 1020.3 SAPELO ISLAND 0700 76 CALM 1020.0 $$ ANZ835-935-AMZ111-154-330-350-352-354-370-450-454-472-220800- ...C-MAN AND BUOY OBSERVATIONS... STATION/POSITION TIME TEMP WIND PRES WAVE SWELL AIR SEA DIR/SP/G HT/PER HT/PER/DIR (UTC) (F) (DEG/KT/KT) (MB) (FT/S) (FT/S/D) BUOY 41004 0710 83 85 220/ 8/ 10 1019.4 BUOY 41008 0650 83 85 180/ 8/ 10 1019.5F 2/10 2/ 90/10 FOLLY BEACH CMAN 0700 80 340/ 1/ 2 1020.6F CAPERS NEARSHORE 0708 81 86 190/ 4/ 14 1019.9F FRIPP NEARSHORE 0708 83 200/ 10/ 16 1019.3F STATION/POSITION TIME TEMP WIND PRES WAVE SWELL AIR SEA DIR/SP/G HT/PER HT/PER/DIR (UTC) (F) (DEG/KT/KT) (MB) (FT/S) (FT/S/D) 5E ST. MARYS GA 0700 84 N/A 2/11 2/120/11 FRYING PAN BUOY 0710 83 84 200/ 8/ 12 1020.0 BUOY 41025 0650 82 84 320/ 4/ 6 1020.7F 2/ 9 2/150/ 9 CAPE LOOKOUT NC 0700 80 180/ 2/ 2 1020.3F BUOY 41002 0650 82 84 140/ 6/ 8 1020.9F 4/11 3/110/11 BUOY 41010 0710 84 85 80/ 10/ 12 1018.6 ST AUGUSTINE FL 0700 82 82 150/ 7/ 8 1019.5F $$

USA.gov is the U.S. government's official web portal to all federal, state and local government web resources and services.